RYR6SX LDDU-LIBD

Flight info

Callsign RYR6SX
Flight time 0h 27m
Altitude 21000
Route AIOSA DCT BANAV
Aircraft B738/M-SDE2E3FGHIRWXY/LB1

Departure

Time 2026-04-23 14:12
Airport Dubrovnik Ruđer Bošković Airport (LDDU)

Arrival

Time 2026-04-23 14:39
Airport Bari Karol Wojtyła International Airport (LIBD)
Time Latitude Longitude Altitude Speed Heading
2026-04-23 13:46 42.56190 18.26035 514 ft 0 kts 208°
2026-04-23 14:06 42.56200 18.26042 514 ft 2 kts 208°
2026-04-23 14:06 42.56214 18.26053 514 ft 2 kts 208°
2026-04-23 14:07 42.56229 18.26063 514 ft 2 kts 204°
2026-04-23 14:07 42.56252 18.26060 514 ft 1 kts 119°
2026-04-23 14:08 42.56245 18.26079 514 ft 5 kts 119°
2026-04-23 14:09 42.56218 18.26149 513 ft 12 kts 116°
2026-04-23 14:09 42.56168 18.26279 512 ft 19 kts 118°
2026-04-23 14:09 42.56097 18.26458 510 ft 24 kts 119°
2026-04-23 14:09 42.56013 18.26664 508 ft 25 kts 118°
2026-04-23 14:10 42.55934 18.26865 506 ft 23 kts 117°
2026-04-23 14:10 42.55857 18.27054 504 ft 23 kts 118°
2026-04-23 14:10 42.55788 18.27236 502 ft 16 kts 117°
2026-04-23 14:10 42.55804 18.27332 501 ft 11 kts 24°
2026-04-23 14:11 42.55894 18.27328 501 ft 15 kts 352°
2026-04-23 14:11 42.55970 18.27247 503 ft 17 kts 299°
2026-04-23 14:11 42.56144 18.26802 508 ft 92 kts 298°
2026-04-23 14:11 42.56556 18.25745 536 ft 157 kts 298°
2026-04-23 14:12 42.57138 18.24357 1106 ft 183 kts 297°
2026-04-23 14:12 42.57822 18.22776 1820 ft 198 kts 301°
2026-04-23 14:12 42.58504 18.21166 2747 ft 200 kts 303°
2026-04-23 14:12 42.59198 18.19403 3118 ft 225 kts 300°
2026-04-23 14:13 42.59888 18.17443 3586 ft 240 kts 290°
2026-04-23 14:13 42.59864 18.15112 4108 ft 262 kts 253°
2026-04-23 14:13 42.58857 18.12991 4704 ft 278 kts 230°
2026-04-23 14:13 42.57491 18.11059 5540 ft 285 kts 226°
2026-04-23 14:14 42.56064 18.09166 6562 ft 287 kts 225°
2026-04-23 14:14 42.54624 18.07272 7355 ft 294 kts 225°
2026-04-23 14:14 42.53157 18.05336 8355 ft 294 kts 226°
2026-04-23 14:14 42.51686 18.03384 9217 ft 299 kts 226°
2026-04-23 14:15 42.50173 18.01363 10029 ft 306 kts 226°
2026-04-23 14:15 42.48663 17.99339 10703 ft 317 kts 226°
2026-04-23 14:15 42.47029 17.97142 10974 ft 341 kts 225°
2026-04-23 14:15 42.45330 17.94855 11643 ft 349 kts 225°
2026-04-23 14:16 42.43597 17.92522 12504 ft 352 kts 225°
2026-04-23 14:16 42.41837 17.90152 13243 ft 360 kts 224°
2026-04-23 14:16 42.40059 17.87761 13934 ft 367 kts 224°
2026-04-23 14:16 42.38220 17.85287 14608 ft 373 kts 224°
2026-04-23 14:17 42.36378 17.82809 15383 ft 375 kts 224°
2026-04-23 14:17 42.34535 17.80333 16071 ft 380 kts 224°
2026-04-23 14:17 42.32642 17.77791 16777 ft 384 kts 224°
2026-04-23 14:17 42.30745 17.75245 17684 ft 382 kts 224°
2026-04-23 14:18 42.28856 17.72713 18592 ft 380 kts 224°
2026-04-23 14:18 42.26977 17.70204 19289 ft 382 kts 224°
2026-04-23 14:18 42.25069 17.67664 19926 ft 385 kts 224°
2026-04-23 14:18 42.23176 17.65145 20612 ft 387 kts 224°
2026-04-23 14:19 42.21247 17.62574 21038 ft 389 kts 224°
2026-04-23 14:19 42.19317 17.60000 21060 ft 388 kts 224°
2026-04-23 14:19 42.17421 17.57471 21071 ft 387 kts 224°
2026-04-23 14:19 42.15502 17.54913 21091 ft 388 kts 224°
2026-04-23 14:20 42.13590 17.52365 21086 ft 388 kts 224°
2026-04-23 14:20 42.11660 17.49794 21086 ft 389 kts 224°
2026-04-23 14:20 42.09746 17.47249 21089 ft 389 kts 224°
2026-04-23 14:20 42.07807 17.44672 21090 ft 390 kts 224°
2026-04-23 14:21 42.05866 17.42094 21087 ft 390 kts 223°
2026-04-23 14:21 42.03956 17.39561 21087 ft 390 kts 223°
2026-04-23 14:21 42.02015 17.36987 21085 ft 390 kts 223°
2026-04-23 14:21 42.00079 17.34423 21088 ft 390 kts 223°
2026-04-23 14:22 41.98155 17.31877 20754 ft 392 kts 223°
2026-04-23 14:22 41.96201 17.29293 20364 ft 392 kts 223°
2026-04-23 14:22 41.94253 17.26721 19927 ft 391 kts 224°
2026-04-23 14:22 41.92330 17.24191 19426 ft 392 kts 223°
2026-04-23 14:23 41.90310 17.21698 18953 ft 392 kts 220°
2026-04-23 14:23 41.88252 17.19269 18462 ft 392 kts 220°
2026-04-23 14:23 41.86217 17.16889 17921 ft 393 kts 220°
2026-04-23 14:23 41.84150 17.14459 17370 ft 393 kts 220°
2026-04-23 14:24 41.82100 17.12034 16854 ft 392 kts 221°
2026-04-23 14:24 41.80089 17.09644 16430 ft 388 kts 221°
2026-04-23 14:24 41.78078 17.07252 15998 ft 385 kts 221°
2026-04-23 14:24 41.76071 17.04866 15578 ft 381 kts 221°
2026-04-23 14:25 41.74056 17.02613 15155 ft 378 kts 214°
2026-04-23 14:25 41.71800 17.00849 14775 ft 373 kts 203°
2026-04-23 14:25 41.69392 16.99652 14422 ft 366 kts 194°
2026-04-23 14:25 41.66941 16.98738 14024 ft 363 kts 193°
2026-04-23 14:26 41.64506 16.97860 13581 ft 361 kts 193°
2026-04-23 14:26 41.62105 16.96987 13138 ft 359 kts 194°
2026-04-23 14:26 41.59693 16.96091 12705 ft 356 kts 194°
2026-04-23 14:26 41.57327 16.95201 12287 ft 354 kts 194°
2026-04-23 14:27 41.54976 16.94312 11879 ft 351 kts 194°
2026-04-23 14:27 41.52632 16.93417 11475 ft 349 kts 196°
2026-04-23 14:27 41.50340 16.92374 11110 ft 345 kts 199°
2026-04-23 14:27 41.48095 16.91240 10723 ft 343 kts 200°
2026-04-23 14:28 41.45917 16.90119 10582 ft 333 kts 200°
2026-04-23 14:28 41.43787 16.89030 10394 ft 320 kts 200°
2026-04-23 14:28 41.41745 16.87999 9936 ft 315 kts 200°
2026-04-23 14:28 41.39672 16.86961 9432 ft 318 kts 200°
2026-04-23 14:29 41.37616 16.85937 9322 ft 308 kts 200°
2026-04-23 14:29 41.35648 16.84960 9109 ft 302 kts 200°
2026-04-23 14:29 41.33677 16.83983 8869 ft 298 kts 200°
2026-04-23 14:29 41.31749 16.83029 8546 ft 297 kts 199°
2026-04-23 14:30 41.29850 16.81940 8210 ft 297 kts 213°
2026-04-23 14:30 41.28397 16.80023 7875 ft 294 kts 238°
2026-04-23 14:30 41.27350 16.77723 7570 ft 293 kts 241°
2026-04-23 14:30 41.26333 16.75374 7264 ft 292 kts 242°
2026-04-23 14:31 41.25329 16.73059 6948 ft 292 kts 242°
2026-04-23 14:31 41.24306 16.70722 6696 ft 289 kts 241°
2026-04-23 14:31 41.23287 16.68419 6362 ft 289 kts 241°
2026-04-23 14:31 41.22262 16.66113 6060 ft 287 kts 241°
2026-04-23 14:32 41.21259 16.63863 5776 ft 285 kts 242°
2026-04-23 14:32 41.20322 16.61530 5452 ft 283 kts 250°
2026-04-23 14:32 41.19635 16.59105 5275 ft 278 kts 253°
2026-04-23 14:32 41.18996 16.56707 5039 ft 276 kts 254°
2026-04-23 14:33 41.18335 16.54308 4749 ft 274 kts 253°
2026-04-23 14:33 41.17683 16.51991 4549 ft 265 kts 253°
2026-04-23 14:33 41.17047 16.49745 4414 ft 253 kts 253°
2026-04-23 14:33 41.16264 16.47702 4265 ft 247 kts 230°
2026-04-23 14:34 41.14825 16.46605 4160 ft 242 kts 189°
2026-04-23 14:34 41.13211 16.46891 4070 ft 229 kts 147°
2026-04-23 14:34 41.12082 16.48223 4063 ft 210 kts 127°
2026-04-23 14:34 41.11107 16.49627 3909 ft 208 kts 128°
2026-04-23 14:35 41.10121 16.51038 3712 ft 206 kts 127°
2026-04-23 14:35 41.09467 16.51967 3497 ft 210 kts 128°
2026-04-23 14:35 41.08355 16.54011 3080 ft 199 kts 95°
2026-04-23 14:35 41.08479 16.55825 3127 ft 204 kts 70°
2026-04-23 14:36 41.08844 16.57679 2906 ft 204 kts 71°
2026-04-23 14:36 41.09217 16.59483 2559 ft 202 kts 66°
2026-04-23 14:36 41.09683 16.61224 2261 ft 194 kts 64°
2026-04-23 14:36 41.10153 16.62881 1994 ft 187 kts 63°
2026-04-23 14:37 41.10595 16.64459 1723 ft 177 kts 64°
2026-04-23 14:37 41.11000 16.65929 1532 ft 163 kts 63°
2026-04-23 14:37 41.11380 16.67263 1304 ft 149 kts 62°
2026-04-23 14:37 41.11734 16.68518 1119 ft 146 kts 60°
2026-04-23 14:38 41.12092 16.69787 925 ft 149 kts 61°
2026-04-23 14:38 41.12457 16.71088 713 ft 150 kts 64°
2026-04-23 14:38 41.12821 16.72401 506 ft 152 kts 64°
2026-04-23 14:38 41.13183 16.73719 276 ft 151 kts 64°
2026-04-23 14:39 41.13540 16.74937 176 ft 119 kts 70°
2026-04-23 14:39 41.13695 16.75493 168 ft 21 kts 76°
2026-04-23 14:39 41.13675 16.75687 165 ft 21 kts 103°
2026-04-23 14:39 41.13640 16.75876 161 ft 21 kts 104°
2026-04-23 14:40 41.13627 16.76033 154 ft 16 kts 123°
2026-04-23 14:40 41.13557 16.76138 153 ft 15 kts 103°
2026-04-23 14:40 41.13571 16.76227 151 ft 0 kts 69°
2026-04-23 14:40 41.13574 16.76240 150 ft 3 kts 84°
2026-04-23 14:41 41.13563 16.76266 150 ft 3 kts 143°
2026-04-23 14:41 41.13535 16.76281 150 ft 5 kts 158°
2026-04-23 14:41 41.13521 16.76289 150 ft 0 kts 158°